星链-5507 (STARLINK-5507 )

导读

STARLINK-5507是美国太空探索技术公司(SpaceX)于2023年2月17日发射的星链(Starlink)低轨互联网通信卫星,属于星链星座组网的组成部分。星链计划旨在通过近地轨道卫星组网,为全球提供高速互联网接入服务,可覆盖偏远地区,支撑民用通信、商业航运航空乃至军事应用,但也引发了太空碎片、轨道资源等方面的争议。

Basic Information
目录编号:
55638
目录名称:
STARLINK-5507
国际标识:
2023-021L
轨道中心:
EARTH
卫星名称:
星链-5507
卫星全名:
星链-5507 (STARLINK-5507 )
卫星状态:
在轨 (已飞行1303 天)
发射日期:
2023-02-17 UTC
国别 :
美国 (US)
星等 :
--
This satellite is enrolled in the Space Conjunction Data Service (SCDS) and the current flight risk assessment level is: No High Risk
Orbit Information
数据来源 国际轨道数据 AOE轨道数据
星历时间 2026-09-12T07:30:28+0800
16小时前
查看轨道信息
2026-09-06T22:00:00+0800
6天前
查看轨道信息
半长轴 6950.2km 6950.176km
偏心率 0.0002592 0.000264
轨道倾角 69.999° 70.000°
近地点辐角 268.828° 278.854°
升交点赤经 94.713° 108.320°
平近点角 91.258° 142.712°
近地点 570.261km 570.204km
远地点 573.865km 573.874km
周期 96.107分钟 96.107分钟
每日圈数 14.983279 14.983356
Detailed Information
固有亮度:
5
最大亮度:
2.5
卫星平台:
Starlink v1.5
覆盖范围:
全球
运营商:
太空探索技术公司
运营商所在国:
美国
制造商(研发单位):
太空探索技术公司
制造商所在国:
美国
使用方式:
暂无
Satellite Introduction
星链(Starlink)计划是由太空探索技术公司(SpaceX)提出的一个巨型低轨卫星互联网星座项目,计划在2019年至2024年间在太空搭建由约1.2万颗卫星组成的“星链”网络,其中1584颗将部署在地球上空550千米处的近地轨道,并从2020年开始工作。该卫星仍在工作。
2D Orbit Map
3D Orbit Map
Orbit Altitude Analysis Chart
Orbit Inclination Analysis Chart
Orbit Comprehensive Analysis Chart
View Comprehensive Chart
Conjunction Data List
Event ID Objects TCA Miss Dist (km) Collision Risk Probability Collision Risk Index (CRI) Action
CDM_260914-030703-769105-563822
2026-09-14T
03:07:49+0000
0.731 km
远距离
5.850243E-5 中风险 0.7
Miss Distance Evolution Trend with All Objects
Collision Probability Evolution Trend with All Objects